GFSWCAN_850_dewp_024.txt.gz
Dewpoint
5 5 5 4 3 2 1 -1 -2 -3 -4 -5 -5 -5 -3 0 1 1 -1 -2 4 6 6 6 4 4 4 3 9 5 6 6 9 6 8 9 8 7 4 1 5 5 6 6 5 6 6 -1 -1 5 4 3 4 3
5 5 5 5 5 4 2 0 -2 -3 -3 -4 -4 -4 -3 -0 1 2 3 -1 -2 5 7 7 5 4 4 5 4 5 3 6 6 7 8 8 6 6 7 7 -3 4 5 6 5 5 1 1 2 4 4 3 3 2
5 5 5 5 5 4 3 2 0 -2 -3 -3 -3 -3 -2 -0 1 3 5 -0 1 3 6 5 6 2 2 3 5 6 6 3 3 6 7 5 5 6 6 7 3 -1 -2 6 4 1 -1 3 4 4 3 3 1 2
5 5 5 5 5 5 4 3 2 0 -1 -1 -1 -1 -1 -0 1 2 6 2 5 3 5 7 6 4 1 0 3 5 5 4 6 6 5 4 5 3 8 5 6 3 1 3 4 1 1 4 4 4 3 3 2 -2
4 5 5 5 5 5 4 4 3 3 2 1 1 1 1 1 2 2 2 2 3 7 6 8 6 5 3 3 5 4 5 5 7 6 3 5 6 7 6 6 7 2 2 5 6 3 4 4 4 3 2 1 -2 -5
3 3 5 5 5 5 5 4 4 3 3 3 2 2 2 2 2 3 6 2 3 6 2 6 7 6 4 4 7 7 6 6 6 7 6 6 3 5 6 5 1 -1 1 1 3 4 4 4 3 2 -0 -2 -5 -5
1 2 3 4 5 5 5 5 5 4 3 4 4 4 4 4 4 7 5 7 4 4 2 5 7 5 4 6 6 6 7 7 6 5 6 6 5 4 5 6 0 0 1 2 2 3 3 2 1 -0 -4 -5 -7 -10
-4 -3 0 1 3 3 4 4 4 5 4 4 5 5 5 5 5 6 4 2 4 5 4 6 5 5 4 5 5 5 5 5 5 5 5 5 5 5 6 4 2 1 1 2 2 3 3 2 -2 -4 -6 -9 -10 -10
-5 -5 -5 -4 -1 1 2 3 3 4 4 4 4 4 4 4 5 5 4 3 4 6 6 4 5 5 4 4 4 4 4 4 4 4 4 5 4 5 4 3 3 2 1 0 -0 -2 -3 -4 -5 -8 -10 -10 -9 -9
-3 -5 -5 -4 -5 -6 -2 1 2 4 5 5 5 5 5 5 4 3 4 4 5 5 5 4 4 5 3 3 3 3 3 5 4 4 3 2 3 3 3 2 2 2 1 -0 -2 -3 -4 -6 -8 -9 -9 -8 -7 -8
-2 -4 -5 -5 -4 -4 -2 0 1 3 5 4 5 4 4 5 5 4 5 4 4 4 4 4 5 4 4 3 3 3 3 3 5 4 4 4 3 1 2 1 1 1 -0 -2 -3 -5 -8 -9 -9 -8 -8 -7 -9 -9
-3 -3 -3 -4 -3 -1 0 2 3 3 4 3 3 3 3 3 2 4 2 2 2 4 1 1 2 3 3 4 3 2 3 2 4 1 3 3 1 1 1 0 -1 -2 -3 -6 -8 -9 -9 -9 -8 -8 -8 -12 -11 -11
-4 -2 -3 -1 -2 -1 0 1 2 2 2 2 2 2 1 -0 2 3 3 2 2 0 0 1 0 1 1 2 1 0 2 3 2 2 2 1 0 -0 -1 -2 -2 -4 -7 -8 -9 -10 -9 -12 -16 -17 -16 -14 -11 -10
-6 -2 -2 -1 -0 -1 1 1 1 1 1 1 -0 1 1 2 1 1 1 1 0 1 0 1 -0 1 0 0 0 2 1 2 2 2 2 1 -2 -3 -2 -2 -4 -6 -7 -10 -14 -14 -14 -17 -18 -16 -14 -12 -10 -10
-7 -2 -2 -2 -0 -0 -0 1 0 -0 0 -0 0 1 1 -1 -1 -1 -0 -0 -0 0 0 0 0 1 0 1 1 1 1 2 2 3 1 -1 -2 -2 -4 -5 -6 -7 -9 -10 -12 -15 -17 -17 -15 -14 -12 -10 -9 -10
-7 -4 -2 -1 -1 -0 0 1 0 -1 -3 -1 -1 0 -1 -0 -1 -1 -0 -1 -0 -0 -0 0 0 1 1 1 1 2 2 2 3 1 -1 -2 -4 -5 -5 -5 -7 -11 -12 -12 -14 -16 -15 -14 -12 -11 -10 -10 -9 -9
-7 -0 -2 -1 -1 -1 -1 -1 0 -1 -2 -1 -1 -1 -1 -0 -0 -1 -0 -1 -0 -0 0 0 2 0 -0 1 1 1 2 1 -1 -2 -3 -3 -4 -6 -7 -10 -9 -11 -12 -12 -11 -11 -10 -9 -9 -9 -9 -8 -7 -5
-3 -2 -2 -1 -1 -2 -1 -1 -1 -2 -2 -2 -0 -1 -1 -1 -0 -1 -1 -1 -0 -0 -0 0 -2 -0 0 -0 -0 -0 -2 -2 -2 -4 -5 -6 -7 -7 -8 -7 -9 -10 -12 -12 -11 -10 -9 -8 -6 -5 -5 -5 -5 -5
-2 -1 -2 -1 -1 -1 -1 -1 -1 -2 -2 -2 -2 -2 -2 -2 -2 -2 -2 -1 -1 -2 -3 -3 -0 -2 -1 -4 -2 -2 -3 -4 -4 -5 -7 -7 -7 -6 -7 -9 -11 -11 -9 -7 -8 -8 -7 -8 -8 -8 -7 -6 -5 -5
-3 -2 -2 -1 -1 -1 -2 -2 -3 -3 -2 -3 -2 -2 -2 -3 -3 -2 -2 -2 -3 -2 -2 -2 -2 -2 -3 -4 -5 -4 -5 -5 -5 -5 -5 -6 -7 -8 -7 -7 -6 -7 -8 -9 -10 -9 -8 -6 -6 -7 -6 -5 -4 -4
-3 -3 -2 -2 -1 -2 -2 -3 -3 -3 -3 -3 -3 -3 -3 -4 -3 -3 -3 -3 -2 -2 -4 -5 -4 -2 -2 -4 -7 -8 -8 -8 -7 -7 -7 -7 -7 -7 -8 -9 -8 -7 -6 -6 -6 -7 -7 -6 -6 -6 -5 -4 -4 -4
-3 -2 -2 -2 -3 -3 -3 -3 -2 -3 -3 -3 -3 -3 -3 -3 -4 -4 -4 -3 -4 -4 -4 -4 -5 -5 -5 -5 -5 -7 -8 -12 -13 -11 -9 -7 -7 -6 -6 -5 -6 -6 -7 -7 -8 -7 -7 -6 -6 -6 -5 -5 -5 -6
-3 -3 -3 -3 -4 -4 -4 -3 -4 -4 -4 -3 -4 -3 -4 -4 -4 -5 -4 -5 -4 -5 -5 -5 -6 -6 -7 -6 -8 -14 -13 -10 -8 -7 -7 -7 -6 -5 -5 -6 -6 -6 -6 -6 -6 -7 -7 -6 -6 -6 -5 -5 -6 -6
-3 -3 -4 -4 -3 -4 -4 -4 -5 -5 -5 -5 -4 -4 -5 -5 -5 -5 -5 -5 -6 -6 -6 -6 -6 -6 -7 -8 -10 -8 -7 -7 -7 -7 -6 -7 -7 -6 -6 -6 -5 -6 -6 -5 -5 -7 -7 -7 -7 -6 -6 -7 -7 -8
-4 -5 -4 -4 -4 -5 -5 -5 -5 -5 -4 -4 -5 -4 -5 -5 -5 -5 -5 -4 -4 -4 -4 -5 -6 -7 -7 -7 -6 -5 -5 -6 -7 -8 -10 -8 -7 -7 -6 -6 -8 -8 -7 -6 -7 -6 -6 -7 -7 -7 -7 -8 -8 -8
-4 -5 -4 -4 -5 -4 -5 -4 -5 -5 -5 -5 -5 -5 -5 -5 -5 -5 -6 -4 -6 -7 -7 -6 -6 -5 -5 -6 -7 -8 -10 -13 -15 -13 -11 -11 -11 -9 -8 -8 -8 -7 -7 -7 -7 -7 -7 -7 -8 -8 -8 -8 -8 -8
-4 -5 -6 -6 -6 -5 -5 -4 -5 -5 -5 -5 -5 -6 -5 -5 -6 -5 -6 -7 -7 -8 -8 -8 -8 -9 -9 -9 -11 -12 -12 -11 -12 -12 -12 -10 -9 -9 -9 -10 -11 -10 -10 -10 -10 -9 -9 -9 -8 -9 -9 -9 -9 -9
-5 -5 -6 -5 -5 -6 -6 -6 -6 -5 -6 -7 -6 -6 -6 -7 -5 -8 -9 -10 -9 -9 -10 -10 -11 -13 -12 -13 -12 -11 -12 -14 -14 -14 -14 -10 -11 -11 -12 -12 -12 -12 -11 -11 -11 -11 -11 -10 -10 -10 -10 -10 -10 -10
-6 -5 -6 -6 -5 -5 -5 -6 -6 -7 -7 -6 -6 -6 -5 -9 -10 -10 -11 -11 -10 -11 -11 -12 -13 -13 -12 -12 -13 -13 -13 -14 -15 -15 -15 -14 -14 -15 -15 -15 -14 -14 -14 -13 -13 -12 -12 -12 -12 -12 -11 -12 -12 -12
-5 -6 -5 -6 -6 -5 -5 -4 -4 -5 -5 -5 -4 -7 -9 -11 -12 -11 -12 -12 -12 -13 -13 -13 -13 -13 -14 -14 -14 -14 -14 -14 -15 -15 -16 -16 -16 -16 -16 -16 -15 -15 -15 -14 -14 -13 -13 -13 -13 -12 -12 -13 -13 -14
-6 -5 -5 -5 -5 -5 -5 -7 -8 -8 -8 -5 -5 -5 -9 -11 -12 -12 -13 -14 -14 -14 -14 -14 -15 -15 -15 -15 -16 -16 -16 -16 -16 -17 -17 -17 -17 -17 -17 -17 -17 -16 -16 -15 -15 -15 -15 -15 -14 -14 -14 -15 -15 -15
-6 -6 -6 -6 -5 -6 -6 -6 -6 -5 -6 -6 -6 -8 -9 -10 -11 -14 -15 -15 -15 -15 -16 -16 -17 -17 -19 -18 -17 -17 -17 -17 -18 -18 -18 -18 -19 -19 -19 -18 -18 -17 -17 -16 -16 -16 -17 -16 -16 -16 -16 -16 -15 -16
-7 -7 -7 -7 -7 -7 -6 -8 -9 -9 -8 -8 -7 -9 -11 -10 -11 -15 -15 -16 -16 -18 -21 -22 -22 -22 -18 -19 -21 -18 -19 -21 -21 -19 -19 -19 -20 -20 -20 -20 -19 -18 -17 -17 -17 -18 -18 -17 -17 -17 -17 -17 -17 -18

GFSWCAN_850_dewp_030.txt.gz
Dewpoint
5 2 1 2 0 -0 -1 -1 -2 -3 -3 -3 -3 -2 -1 -1 -1 -1 0 2 4 5 6 5 5 4 4 4 4 5 3 4 3 1 0 4 1 2 2 3 2 2 3 2 0 -1 2 -1 0 1 1 3 3 3
5 1 1 2 0 -0 -1 -1 -2 -2 -3 -4 -3 -2 -0 0 1 -2 1 3 2 1 6 6 6 6 4 3 3 4 -0 4 3 3 2 4 1 3 2 3 1 1 0 2 2 2 -2 0 -0 -0 1 3 3 3
2 2 2 2 1 0 -0 -1 -2 -2 -3 -3 -4 -3 -2 0 1 -0 -1 0 0 3 5 5 5 6 6 5 4 3 5 4 4 2 4 1 -0 2 3 3 3 0 1 2 2 1 1 1 2 2 3 3 3 1
3 2 3 2 1 2 1 -1 -1 -2 -2 -3 -3 -3 -3 -1 0 2 -0 -1 -2 -1 3 6 6 3 5 6 5 4 3 4 4 4 3 3 1 2 1 -0 1 -1 2 2 2 3 4 4 3 3 3 3 1 -0
4 4 4 4 2 3 2 0 -1 -1 -2 -2 -3 -3 -2 -2 -1 -1 0 1 0 0 4 6 6 5 3 3 5 5 4 4 6 5 2 2 2 3 2 1 2 2 2 2 2 1 2 2 3 3 3 1 1 -4
5 4 4 4 5 4 3 2 1 -0 -1 -1 -2 -2 -2 -1 -1 -1 -0 2 3 3 1 2 5 5 4 5 4 5 5 5 5 4 3 4 6 3 4 4 3 3 2 3 2 2 3 3 4 3 1 0 -4 -5
5 5 4 4 4 4 4 3 2 1 1 -0 -1 -1 -1 0 0 -1 1 4 4 2 -1 4 4 5 5 7 7 7 6 6 6 6 5 5 5 5 3 4 2 0 -0 1 2 3 4 4 3 2 1 -4 -6 -9
4 5 5 5 4 4 4 4 3 3 2 2 1 1 1 1 3 4 4 4 4 1 1 1 1 3 5 6 5 5 6 5 5 5 6 5 5 3 4 3 3 3 2 2 3 3 2 3 1 0 -1 -9 -10 -10
2 3 4 5 5 4 4 4 4 3 3 3 3 3 2 2 2 4 4 2 4 3 3 2 0 1 5 4 4 5 5 2 4 3 4 4 2 3 3 3 3 2 3 3 3 3 2 1 1 -7 -9 -10 -10 -10
-3 0 1 2 4 5 4 4 4 4 4 4 3 2 3 3 4 4 4 3 3 4 4 2 3 2 3 3 3 3 3 2 3 2 3 2 3 2 2 2 3 3 3 3 2 1 -0 -4 -6 -6 -9 -9 -9 -9
-3 -3 -3 -5 -3 0 3 4 5 5 4 4 4 4 4 4 3 3 3 3 3 3 4 4 3 3 2 2 2 3 1 1 2 0 2 2 2 0 2 1 2 1 1 0 0 -1 -2 -2 -3 -4 -7 -9 -10 -14
-3 -2 -1 2 1 0 0 3 4 5 4 4 4 5 5 4 4 2 2 2 2 3 2 3 3 3 4 3 2 2 2 1 2 2 3 3 0 0 -0 -1 -1 -1 -1 -1 -1 -0 -2 -3 -7 -9 -14 -18 -18 -18
-2 -1 -0 1 2 2 3 2 3 4 4 4 3 3 2 1 2 4 4 2 2 1 1 1 1 2 3 3 2 1 2 3 1 2 2 0 1 -1 -1 -1 -2 -1 -2 -5 -7 -8 -10 -13 -15 -16 -18 -17 -16 -14
-2 -1 -0 0 1 1 2 2 3 3 3 2 1 0 1 1 0 -0 0 0 0 1 1 1 0 1 0 1 0 2 1 1 2 -1 -2 1 1 0 -1 -4 -6 -8 -6 -6 -9 -11 -13 -15 -17 -17 -15 -13 -12 -12
-2 -2 -1 -0 -0 -1 -1 0 1 1 -1 -0 -0 0 -1 -1 -1 -1 -1 -0 -0 -0 0 0 -0 0 -0 0 -0 -0 0 1 1 1 0 -0 -1 -1 -7 -7 -5 -8 -9 -10 -12 -15 -17 -16 -15 -14 -13 -13 -11 -10
-3 -2 -3 -2 -1 -2 -3 -2 -3 -5 -2 -1 -2 -2 -1 -1 -1 -1 -1 -1 -0 -0 -0 -0 -0 0 -1 -0 0 1 1 0 -0 -0 -1 -1 -1 -1 -1 -2 -9 -9 -10 -11 -14 -15 -15 -14 -13 -12 -13 -12 -11 -9
-7 -2 -2 -2 -2 -3 -3 -3 -2 -4 -2 -2 -1 -1 -1 -2 -1 -1 -1 -1 -0 -1 -1 -1 -1 -2 -1 -1 -1 -0 -0 -1 -0 -3 -3 -1 -3 -4 -6 -7 -7 -8 -11 -13 -14 -13 -12 -11 -11 -11 -11 -11 -10 -9
-4 -2 -2 -2 -3 -3 -3 -3 -3 -3 -1 -2 -1 -1 -1 -1 -1 -2 -1 -1 -1 -1 -1 -2 -1 -2 -1 -1 -1 -0 -1 -2 -2 -2 -2 -4 -5 -6 -7 -7 -6 -8 -8 -11 -12 -11 -10 -11 -10 -10 -10 -10 -10 -10
-5 -4 -3 -3 -3 -3 -2 -2 -2 -3 -2 -2 -2 -2 -2 -2 -2 -2 -2 -2 -2 -3 -3 -2 -4 -4 -4 -2 -1 -1 -3 -3 -4 -5 -6 -7 -6 -6 -6 -7 -7 -8 -9 -9 -9 -9 -8 -8 -8 -8 -8 -8 -9 -9
-4 -3 -4 -4 -4 -4 -3 -3 -2 -3 -3 -2 -3 -2 -3 -3 -3 -3 -2 -2 -3 -2 -3 -5 -4 -2 -3 -4 -4 -5 -5 -5 -5 -5 -6 -7 -8 -8 -9 -8 -7 -6 -6 -6 -6 -6 -6 -6 -6 -6 -6 -5 -5 -7
-6 -4 -4 -4 -4 -3 -3 -3 -4 -3 -4 -3 -3 -4 -4 -4 -4 -3 -3 -3 -3 -2 -2 -3 -3 -4 -3 -4 -4 -6 -5 -6 -6 -7 -8 -9 -7 -6 -6 -6 -6 -7 -8 -7 -6 -6 -6 -5 -5 -6 -6 -6 -5 -6
-5 -5 -4 -5 -3 -3 -3 -2 -3 -4 -4 -3 -4 -4 -4 -5 -5 -4 -4 -4 -4 -4 -4 -4 -4 -4 -3 -4 -5 -7 -8 -10 -9 -6 -6 -7 -7 -7 -7 -10 -11 -13 -12 -8 -7 -7 -7 -8 -9 -9 -9 -9 -9 -6
-4 -5 -4 -4 -3 -4 -4 -3 -3 -4 -5 -2 -2 -3 -4 -5 -5 -5 -5 -5 -4 -4 -5 -5 -5 -5 -5 -5 -6 -9 -8 -6 -6 -6 -6 -6 -7 -8 -10 -14 -16 -15 -13 -11 -9 -10 -9 -10 -10 -10 -9 -8 -7 -7
-5 -5 -4 -4 -4 -4 -4 -3 -3 -3 -3 -3 -4 -4 -4 -5 -5 -5 -7 -4 -4 -4 -5 -6 -6 -7 -6 -6 -6 -6 -6 -6 -7 -7 -9 -11 -15 -16 -15 -13 -12 -11 -10 -11 -11 -12 -12 -12 -12 -11 -11 -10 -9 -8
-3 -4 -4 -5 -4 -5 -6 -6 -4 -5 -6 -4 -4 -7 -5 -5 -9 -10 -9 -5 -5 -5 -5 -5 -6 -5 -5 -6 -6 -6 -7 -9 -12 -15 -16 -16 -15 -14 -13 -12 -12 -13 -13 -14 -14 -14 -14 -13 -13 -12 -12 -11 -11 -10
-6 -4 -5 -5 -5 -6 -7 -7 -6 -4 -6 -5 -7 -5 -6 -7 -8 -9 -6 -7 -6 -6 -6 -6 -6 -6 -6 -7 -8 -10 -12 -14 -16 -16 -15 -14 -14 -13 -13 -13 -14 -16 -16 -16 -16 -16 -16 -15 -15 -14 -13 -13 -13 -12
-7 -7 -5 -5 -4 -4 -4 -4 -4 -4 -5 -7 -6 -7 -7 -7 -11 -7 -8 -8 -8 -8 -8 -9 -8 -9 -10 -11 -12 -13 -14 -15 -15 -16 -15 -14 -12 -13 -14 -16 -18 -18 -18 -18 -18 -17 -17 -16 -15 -15 -14 -14 -14 -13
-5 -5 -7 -6 -5 -4 -5 -5 -5 -5 -5 -4 -5 -6 -5 -9 -8 -9 -9 -9 -9 -9 -9 -10 -10 -11 -12 -13 -13 -13 -14 -15 -16 -17 -13 -12 -13 -18 -22 -23 -23 -23 -22 -22 -22 -21 -19 -18 -17 -16 -15 -15 -14 -13
-5 -5 -5 -5 -4 -4 -4 -5 -4 -4 -4 -4 -8 -8 -9 -10 -11 -11 -11 -10 -10 -10 -11 -11 -11 -12 -13 -13 -13 -15 -17 -20 -23 -25 -25 -25 -25 -24 -23 -23 -23 -23 -23 -23 -23 -22 -20 -18 -17 -16 -16 -15 -15 -15
-6 -5 -5 -6 -7 -6 -6 -5 -5 -5 -5 -5 -6 -8 -11 -12 -12 -12 -12 -12 -12 -12 -12 -12 -13 -14 -14 -16 -16 -18 -22 -23 -22 -22 -22 -22 -22 -22 -22 -22 -22 -23 -22 -22 -22 -21 -20 -19 -18 -18 -18 -17 -17 -17
-6 -6 -6 -6 -5 -6 -6 -6 -6 -6 -6 -6 -6 -8 -11 -13 -13 -13 -13 -13 -13 -14 -14 -14 -14 -16 -19 -22 -23 -23 -22 -21 -21 -21 -21 -22 -21 -22 -22 -22 -22 -22 -22 -21 -20 -20 -19 -19 -19 -19 -19 -19 -19 -18
-7 -7 -7 -7 -6 -7 -7 -7 -7 -7 -8 -8 -9 -9 -11 -12 -14 -14 -15 -14 -14 -15 -16 -19 -22 -23 -23 -23 -22 -22 -22 -22 -21 -21 -21 -21 -21 -21 -21 -22 -22 -22 -21 -21 -20 -20 -20 -20 -20 -20 -20 -20 -20 -20
-8 -8 -7 -7 -7 -6 -7 -11 -7 -7 -7 -8 -9 -10 -11 -12 -14 -14 -15 -15 -15 -18 -21 -22 -22 -22 -22 -22 -22 -22 -21 -21 -21 -21 -21 -21 -21 -21 -21 -22 -22 -21 -21 -21 -20 -20 -20 -20 -20 -20 -20 -20 -20 -20

GFSWCAN_850_dewp_033.txt.gz
Dewpoint
2 2 1 1 0 -2 -2 -3 -2 -1 -1 2 2 2 1 2 3 -0 4 3 2 6 7 6 5 4 4 3 3 4 3 4 1 -0 -1 1 -1 2 2 2 2 3 3 3 -1 -0 2 -3 -1 1 -0 -1 2 3
2 1 2 1 -2 -1 -1 -2 -2 -1 -0 1 1 2 2 1 -1 0 2 3 2 3 7 7 6 5 4 2 3 4 2 3 2 1 -0 2 0 3 0 2 1 1 -1 2 2 2 -2 -1 -1 -1 -1 -1 2 3
1 3 2 -1 0 -0 -1 -1 -2 -2 -2 -1 1 1 1 1 -1 -1 2 2 1 6 6 6 6 7 6 4 2 2 3 2 2 0 3 1 -1 1 2 2 2 1 -1 1 1 -1 -0 -2 -1 1 1 1 2 3
1 3 2 2 1 1 -0 -1 -2 -2 -2 -2 -2 -2 -1 -0 -1 -2 -1 -0 -3 -0 4 6 4 5 7 6 4 3 2 3 2 2 2 0 -2 1 0 -0 1 0 1 1 1 1 3 2 1 1 2 3 3 2
2 3 3 3 2 1 -0 -0 -1 -2 -2 -3 -3 -3 -2 -1 -1 -1 -2 -2 -3 -3 4 6 5 4 4 5 5 5 4 3 4 4 1 2 1 1 1 1 2 1 2 2 2 -1 1 0 0 2 3 3 2 0
3 3 4 3 3 2 1 1 -0 -1 -2 -2 -2 -2 -3 -2 -2 -2 -2 2 1 -1 -1 2 5 5 4 4 5 5 5 5 5 5 3 2 4 3 2 4 3 1 -0 1 1 2 1 1 2 3 3 2 1 0
4 4 4 4 3 3 2 1 0 -1 -1 -2 -2 -2 -2 -2 -2 -4 -2 3 2 -0 -2 4 3 5 6 7 6 6 6 6 6 5 4 4 5 4 2 3 1 -1 -1 -0 0 2 3 3 3 3 2 1 -1 -4
5 4 4 4 4 3 3 2 1 1 0 -1 -1 -1 -1 -1 0 2 4 3 3 -1 -2 0 -0 4 5 6 6 6 6 6 5 5 5 4 4 3 4 3 3 2 3 2 2 3 3 3 3 2 1 -4 -3 -2
4 4 4 4 4 4 3 3 3 2 2 1 1 1 1 1 2 3 3 4 3 1 1 1 0 1 5 5 4 5 5 2 3 3 3 3 1 3 3 3 3 3 3 3 4 3 3 3 -2 -3 -2 -1 -1 -8
4 5 4 4 4 4 4 4 3 3 3 3 2 1 2 2 3 3 3 2 2 3 3 1 2 2 3 3 3 2 3 1 1 1 3 2 3 2 1 1 1 1 2 2 3 0 -1 -1 -2 -3 -1 -3 -8 -5
0 2 4 5 4 4 4 4 4 4 3 2 2 3 4 4 3 3 2 2 3 3 3 2 2 2 2 2 1 2 0 0 2 -1 2 1 2 1 -1 -1 -0 0 2 2 1 -2 -1 -2 -1 -1 -2 -2 -8 -14
2 1 -0 2 4 4 5 5 5 4 3 3 3 3 4 3 3 2 2 2 2 2 2 3 3 3 3 2 1 2 1 1 2 1 2 3 -0 -2 -3 -1 -1 -1 -1 -0 -0 -0 -0 -2 -4 -8 -13 -16 -17 -18
1 2 2 1 1 2 4 4 4 4 4 4 4 4 2 2 3 4 4 2 2 1 1 2 1 2 3 3 1 1 2 2 1 2 3 1 -2 -1 0 0 -0 -0 -0 -1 -5 -8 -11 -13 -14 -15 -17 -18 -17 -15
1 1 1 2 2 3 3 3 4 4 3 2 2 1 1 1 0 0 0 0 -0 1 1 1 0 1 1 1 0 2 1 1 2 1 -2 0 -0 -1 -5 -6 -8 -8 -8 -10 -11 -12 -14 -17 -16 -15 -14 -12 -11 -11
-1 -0 -0 -0 0 1 2 3 3 2 -0 0 0 0 -1 -1 -1 -1 -1 -0 -0 -0 0 1 0 0 -0 0 -0 -1 -0 -0 -0 -1 -0 -2 -1 -2 -5 -3 -8 -10 -10 -11 -13 -14 -15 -15 -16 -15 -13 -13 -11 -11
-3 -3 -2 -2 -2 -2 -2 -2 -0 -3 -3 -2 -2 -1 -1 -1 -1 -1 -1 -0 -0 -0 -0 0 -0 -0 -1 -0 -0 0 0 -1 -4 -2 -2 -2 -1 -1 -1 -1 -8 -8 -9 -11 -14 -15 -14 -13 -13 -13 -13 -12 -11 -11
-4 -3 -2 -3 -3 -4 -4 -3 -4 -5 -2 -3 -1 -1 -1 -1 -1 -1 -1 -1 -0 -0 -1 -1 -4 -2 -1 -1 -1 -0 -1 -1 -3 -3 -3 -1 -2 -3 -3 -7 -5 -6 -9 -9 -12 -13 -12 -11 -11 -11 -11 -10 -9 -10
-11 -6 -4 -4 -4 -4 -4 -4 -3 -2 -2 -2 -2 -1 -1 -2 -1 -1 -1 -1 -1 -1 -1 -2 -2 -4 -4 -2 -2 -2 -3 -5 -5 -5 -3 -1 -3 -4 -6 -6 -6 -6 -7 -9 -8 -8 -7 -7 -6 -6 -6 -5 -6 -6
-8 -8 -8 -7 -5 -4 -3 -3 -3 -3 -2 -2 -2 -2 -2 -2 -1 -2 -2 -2 -2 -2 -2 -2 -6 -5 -5 -2 -2 -1 -1 -2 -2 -3 -4 -5 -6 -6 -6 -7 -7 -8 -6 -6 -5 -5 -6 -6 -6 -6 -5 -5 -6 -7
-14 -9 -8 -12 -6 -5 -3 -3 -3 -3 -3 -3 -2 -3 -3 -3 -3 -3 -2 -3 -3 -2 -3 -5 -5 -3 -3 -4 -3 -2 -3 -4 -5 -5 -6 -6 -7 -8 -8 -7 -7 -7 -7 -9 -10 -12 -12 -11 -9 -9 -9 -10 -11 -11
-13 -15 -12 -8 -6 -5 -3 -4 -4 -4 -4 -3 -3 -3 -4 -4 -3 -3 -3 -4 -3 -3 -2 -3 -3 -4 -4 -5 -5 -5 -5 -5 -5 -6 -7 -7 -6 -6 -7 -7 -7 -9 -11 -11 -14 -15 -13 -11 -11 -12 -11 -11 -11 -10
-8 -8 -9 -8 -4 -3 -3 -3 -4 -4 -3 -3 -4 -4 -4 -5 -5 -4 -4 -4 -5 -4 -4 -4 -3 -3 -3 -4 -6 -7 -7 -8 -8 -9 -7 -6 -6 -7 -8 -8 -9 -10 -13 -14 -13 -13 -13 -12 -13 -13 -13 -12 -12 -12
-9 -9 -6 -4 -4 -4 -4 -4 -3 -4 -4 -2 -3 -4 -4 -4 -4 -4 -5 -5 -5 -4 -4 -4 -4 -3 -4 -4 -5 -7 -7 -6 -6 -6 -7 -7 -9 -11 -13 -14 -14 -14 -14 -14 -14 -14 -15 -15 -15 -15 -15 -14 -13 -13
-7 -6 -4 -5 -4 -5 -4 -3 -3 -3 -3 -3 -4 -4 -5 -5 -5 -5 -6 -5 -5 -5 -5 -5 -5 -5 -5 -5 -6 -6 -6 -7 -8 -9 -11 -13 -14 -15 -14 -14 -13 -14 -14 -15 -16 -17 -17 -17 -17 -17 -16 -16 -15 -14
-6 -5 -5 -6 -5 -5 -10 -11 -5 -5 -7 -9 -7 -7 -6 -5 -7 -7 -9 -5 -5 -5 -5 -5 -5 -5 -6 -6 -6 -7 -8 -10 -10 -11 -13 -15 -15 -14 -13 -14 -14 -15 -18 -20 -22 -23 -23 -23 -22 -21 -20 -18 -16 -15
-6 -5 -5 -5 -5 -7 -9 -9 -9 -8 -8 -6 -6 -5 -5 -7 -6 -8 -7 -7 -7 -7 -6 -6 -6 -6 -7 -7 -8 -8 -10 -13 -15 -16 -16 -15 -14 -14 -14 -15 -18 -23 -24 -24 -24 -24 -23 -23 -23 -23 -22 -19 -17 -16
-8 -9 -5 -5 -5 -5 -5 -5 -5 -5 -6 -6 -8 -7 -6 -6 -7 -8 -9 -9 -9 -9 -8 -8 -8 -8 -8 -9 -11 -12 -14 -15 -15 -16 -15 -14 -13 -13 -17 -22 -24 -23 -23 -23 -23 -23 -23 -23 -22 -21 -19 -17 -17 -15
-5 -5 -8 -6 -5 -5 -5 -5 -5 -5 -5 -5 -5 -5 -5 -7 -9 -10 -10 -10 -9 -9 -9 -10 -10 -11 -11 -12 -13 -13 -14 -16 -18 -18 -16 -16 -21 -22 -23 -23 -23 -23 -23 -23 -23 -23 -22 -22 -20 -19 -18 -17 -17 -17
-5 -5 -5 -5 -5 -4 -5 -5 -5 -5 -5 -5 -6 -8 -10 -12 -11 -11 -11 -11 -11 -10 -11 -11 -11 -12 -12 -13 -14 -15 -18 -22 -23 -23 -24 -24 -24 -24 -23 -23 -22 -22 -23 -23 -23 -22 -21 -20 -19 -19 -19 -19 -18 -18
-6 -5 -5 -6 -6 -7 -6 -6 -6 -6 -5 -6 -7 -10 -12 -13 -13 -12 -12 -12 -12 -12 -12 -12 -13 -13 -14 -15 -18 -21 -24 -24 -24 -24 -23 -23 -23 -22 -22 -22 -22 -23 -22 -23 -23 -22 -21 -21 -20 -20 -20 -20 -20 -19
-6 -6 -6 -6 -6 -6 -7 -7 -7 -6 -6 -7 -7 -9 -12 -14 -14 -14 -14 -14 -14 -14 -14 -14 -14 -17 -21 -23 -23 -23 -22 -22 -22 -22 -22 -22 -22 -22 -22 -23 -23 -22 -22 -22 -22 -21 -21 -20 -20 -20 -20 -20 -20 -20
-7 -7 -7 -7 -7 -8 -8 -8 -8 -8 -8 -8 -9 -10 -12 -13 -14 -15 -15 -16 -15 -15 -16 -20 -23 -23 -23 -23 -23 -23 -23 -23 -22 -22 -22 -22 -23 -23 -24 -24 -22 -22 -22 -22 -21 -21 -21 -21 -20 -20 -20 -20 -20 -20
-8 -8 -8 -7 -7 -7 -8 -11 -8 -8 -9 -10 -11 -11 -12 -13 -15 -15 -15 -15 -15 -17 -21 -22 -22 -22 -23 -23 -24 -24 -25 -25 -26 -26 -25 -24 -24 -24 -23 -22 -22 -22 -21 -21 -21 -21 -21 -21 -21 -21 -21 -21 -21 -21

GFSWCAN_850_dewp_036.txt.gz
Dewpoint
2 1 0 0 -0 -1 0 1 2 3 4 4 4 3 -0 -2 -2 1 4 5 4 6 7 6 4 3 3 3 3 4 3 3 -0 -0 -1 -0 -1 1 1 1 3 3 3 4 -1 -2 1 -3 -1 1 -0 -3 -3 0
2 1 1 0 -0 1 1 1 -0 3 3 4 4 4 2 0 2 3 3 4 4 5 7 6 6 4 3 2 3 4 2 3 1 0 -2 -1 0 2 0 1 0 1 -0 1 1 1 -3 -3 -1 -1 -1 -1 -2 -1
2 1 0 -0 0 0 1 1 1 2 2 3 4 4 3 3 2 3 5 3 2 6 6 6 7 7 5 3 2 2 1 2 0 -2 0 -1 -2 -0 1 2 1 1 -1 -0 0 -2 -1 -2 -3 -1 -0 -0 -0 0
1 1 0 1 1 -0 0 1 1 0 1 2 3 4 2 2 4 3 2 1 1 3 5 6 6 6 6 5 3 1 1 1 0 0 1 -0 -2 -0 -0 -1 0 0 0 0 0 0 0 -1 -1 -1 -1 0 1 2
3 1 1 1 -0 -0 1 1 -1 -1 0 0 2 4 3 1 1 1 -1 -3 -2 -5 4 6 4 5 6 6 5 4 3 2 2 3 1 1 -1 0 1 0 2 0 1 1 1 -3 -1 -2 -1 -0 1 2 3 3
4 2 2 1 1 1 1 0 -1 -2 -3 -2 -0 1 1 1 -0 -2 -1 -0 -4 -4 -0 3 5 6 6 6 5 5 4 4 4 4 3 2 2 2 3 4 2 1 -1 -1 -1 1 2 2 2 2 2 3 3 2
4 3 1 2 2 1 1 -0 -1 -1 -1 -1 -1 -0 -1 -2 -3 -6 -3 2 -1 -4 -4 3 3 5 6 6 5 6 6 6 5 5 3 3 4 4 2 3 1 2 2 2 2 2 2 2 3 3 3 2 0 -4
4 3 3 3 3 2 1 0 -0 -1 -1 -2 -2 -3 -3 -3 -4 1 4 3 -0 -4 -4 0 0 4 5 6 5 6 6 5 5 4 4 3 3 3 3 3 3 3 2 2 3 3 3 3 3 3 1 -2 -6 -3
4 4 4 4 3 3 2 1 1 1 -0 -1 -2 -2 -2 -2 0 4 3 2 0 -2 -1 -1 -0 1 4 4 4 4 5 3 3 2 3 3 1 3 2 0 1 1 1 2 3 3 3 1 -3 -4 -3 -1 -1 -3
5 5 4 3 4 4 3 3 2 1 1 -0 -1 -1 1 2 2 2 2 1 1 2 2 0 2 2 3 3 2 2 2 1 0 -0 3 2 2 0 -1 -1 -1 1 2 2 2 -2 -2 -2 -1 -1 -2 -2 -2 -2
4 4 4 4 4 4 4 4 3 3 2 0 1 3 4 3 2 2 2 1 2 1 2 2 2 2 2 2 1 1 0 0 2 -1 2 1 2 -1 -1 -1 -0 0 1 1 -0 -1 -1 -1 -1 -1 -2 -3 -6 -12
4 4 4 4 4 4 4 4 3 2 2 2 2 3 3 2 2 1 1 1 1 -0 2 3 2 3 2 2 1 1 1 1 2 1 2 2 -2 -1 -0 0 0 -0 -0 -0 -1 -1 -2 -5 -8 -9 -10 -15 -16 -16
1 2 3 4 4 4 4 4 4 3 2 2 3 3 2 2 3 2 4 3 2 1 1 2 1 2 2 2 1 1 2 2 1 2 2 1 -2 -1 -1 -1 -1 -3 -4 -6 -7 -8 -8 -9 -13 -16 -16 -16 -15 -15
2 2 2 2 3 4 4 4 5 3 3 3 2 2 1 1 0 0 1 1 0 1 1 2 1 1 1 1 0 3 1 1 2 2 -1 0 -1 -2 -4 -5 -6 -9 -10 -11 -12 -12 -14 -16 -17 -17 -17 -15 -15 -13
0 0 1 2 2 3 3 4 4 4 2 1 0 -0 -1 -2 -1 -1 -0 -0 -0 0 1 1 0 1 -0 0 -0 -1 -1 -2 -2 -3 -1 -2 -2 -7 -6 -8 -9 -9 -10 -11 -12 -13 -13 -13 -12 -12 -12 -11 -10 -10
-2 -3 -2 -2 -1 0 2 2 1 -1 -1 -1 -1 -1 -1 -1 -1 -1 -0 -1 -0 -0 0 0 -0 -1 -1 -2 -2 -2 -2 -4 -4 -2 -1 -2 -2 -2 -2 -4 -7 -6 -6 -10 -12 -12 -11 -10 -10 -10 -10 -9 -8 -7
-5 -4 -4 -4 -4 -3 -3 -2 -4 -4 -2 -3 -1 -1 -1 -1 -1 -1 -0 -0 -0 -0 -1 -1 -3 -2 -2 -3 -2 -2 -3 -2 -1 -2 -2 -3 -2 -1 -1 -4 -5 -6 -7 -7 -8 -8 -7 -7 -6 -7 -8 -8 -8 -7
-11 -7 -6 -5 -4 -4 -5 -5 -3 -3 -2 -1 -1 -2 -1 -1 -1 -1 -1 -1 -1 -1 -1 -2 -2 -4 -5 -3 -4 -4 -2 -2 -2 -3 -3 -1 -1 -3 -6 -5 -5 -6 -7 -8 -7 -6 -6 -7 -8 -8 -8 -8 -8 -10
-16 -16 -19 -9 -7 -6 -4 -3 -3 -3 -2 -2 -2 -2 -2 -1 -1 -2 -2 -2 -2 -2 -2 -2 -7 -5 -5 -3 -2 -3 -4 -5 -4 -3 -2 -3 -5 -5 -6 -6 -7 -7 -6 -6 -7 -9 -11 -12 -12 -13 -15 -16 -16 -15
-18 -18 -19 -20 -10 -5 -3 -3 -3 -4 -3 -2 -2 -2 -2 -2 -2 -2 -3 -3 -2 -2 -3 -6 -6 -3 -3 -3 -2 -3 -2 -2 -2 -4 -5 -5 -6 -7 -7 -7 -7 -7 -8 -11 -11 -12 -14 -16 -17 -16 -16 -16 -16 -15
-19 -21 -21 -18 -9 -5 -4 -4 -4 -4 -4 -4 -3 -3 -3 -4 -3 -3 -3 -4 -3 -3 -3 -3 -2 -4 -4 -4 -4 -4 -4 -5 -5 -5 -6 -6 -6 -5 -6 -7 -9 -9 -10 -11 -14 -16 -16 -16 -17 -17 -17 -17 -16 -16
-18 -17 -18 -15 -7 -4 -4 -4 -4 -4 -4 -4 -4 -4 -5 -4 -4 -4 -4 -4 -5 -4 -4 -3 -3 -4 -4 -4 -5 -5 -6 -6 -7 -7 -7 -6 -6 -7 -8 -9 -10 -12 -14 -15 -15 -16 -18 -18 -19 -20 -21 -21 -21 -20
-14 -14 -10 -7 -5 -5 -4 -4 -4 -5 -3 -3 -4 -4 -4 -4 -4 -4 -4 -5 -5 -4 -4 -4 -3 -3 -3 -5 -6 -6 -7 -7 -7 -7 -7 -8 -9 -11 -11 -13 -14 -15 -15 -16 -17 -20 -23 -24 -25 -26 -25 -25 -25 -25
-11 -7 -5 -5 -5 -6 -5 -4 -3 -3 -3 -4 -4 -4 -5 -4 -4 -5 -5 -6 -5 -5 -5 -4 -4 -4 -5 -5 -5 -6 -7 -7 -8 -9 -10 -11 -11 -12 -14 -15 -15 -15 -17 -21 -25 -26 -25 -25 -25 -25 -24 -24 -24 -23
-8 -5 -5 -6 -7 -6 -8 -11 -6 -5 -9 -10 -7 -8 -6 -5 -7 -7 -8 -6 -7 -6 -5 -5 -5 -5 -5 -6 -7 -8 -9 -10 -10 -8 -9 -12 -15 -14 -14 -15 -16 -21 -25 -26 -26 -25 -24 -24 -24 -24 -23 -22 -20 -19
-9 -6 -6 -6 -6 -9 -11 -9 -11 -10 -10 -8 -7 -6 -5 -8 -8 -7 -7 -8 -8 -8 -7 -7 -6 -6 -7 -8 -8 -9 -9 -11 -14 -15 -15 -15 -15 -15 -16 -21 -25 -25 -25 -24 -24 -24 -24 -24 -23 -23 -22 -21 -19 -17
-10 -9 -5 -5 -5 -5 -5 -5 -5 -6 -7 -5 -7 -7 -6 -5 -7 -9 -9 -9 -9 -9 -9 -9 -9 -8 -8 -9 -9 -11 -13 -15 -16 -16 -16 -16 -17 -22 -24 -24 -24 -24 -23 -23 -23 -23 -23 -23 -22 -21 -20 -19 -19 -18
-5 -5 -9 -6 -6 -5 -5 -6 -8 -7 -8 -5 -6 -6 -6 -8 -10 -12 -11 -11 -10 -10 -10 -10 -10 -10 -11 -12 -13 -13 -14 -17 -19 -19 -19 -23 -23 -23 -23 -22 -22 -22 -23 -22 -23 -22 -22 -22 -21 -21 -20 -20 -19 -19
-5 -5 -5 -6 -5 -5 -6 -6 -6 -6 -6 -6 -6 -8 -11 -13 -12 -12 -12 -11 -11 -11 -11 -12 -12 -12 -12 -12 -13 -15 -20 -23 -22 -22 -23 -23 -24 -23 -23 -23 -23 -23 -24 -23 -22 -22 -22 -21 -21 -20 -20 -20 -20 -20
-6 -6 -6 -6 -7 -7 -7 -6 -6 -7 -7 -7 -8 -11 -13 -13 -13 -13 -13 -13 -13 -13 -13 -13 -13 -14 -15 -18 -22 -23 -23 -23 -23 -23 -23 -24 -24 -23 -23 -23 -24 -25 -24 -23 -22 -22 -21 -21 -21 -21 -21 -21 -20 -20
-6 -6 -6 -6 -6 -7 -7 -7 -7 -7 -7 -8 -9 -10 -13 -14 -14 -14 -14 -14 -14 -14 -15 -15 -15 -20 -23 -23 -23 -23 -23 -24 -25 -25 -26 -26 -25 -25 -24 -24 -25 -24 -22 -22 -22 -22 -21 -21 -21 -21 -21 -21 -21 -21
-8 -7 -7 -9 -7 -8 -8 -8 -8 -8 -8 -8 -10 -11 -13 -14 -15 -15 -16 -16 -15 -16 -20 -22 -23 -22 -23 -23 -24 -25 -26 -28 -29 -30 -29 -29 -28 -26 -25 -24 -22 -22 -22 -22 -22 -21 -21 -21 -21 -21 -21 -21 -21 -21
-8 -8 -8 -8 -7 -7 -8 -10 -10 -9 -10 -11 -12 -12 -13 -14 -15 -16 -16 -16 -16 -18 -21 -22 -22 -22 -23 -24 -26 -28 -30 -32 -31 -30 -28 -26 -25 -23 -22 -21 -21 -22 -22 -22 -22 -21 -21 -21 -21 -21 -21 -21 -21 -22